GW0309 Weather Reports


Display with metric or nautical units.
time (UTC)temp
F
wind
direction
speed
MPH
gust
MPH
rain 1hr
in
rain 24hr
in
rain mn
in
humidity
%
barometer
mb
20260903171350 0 177 1.0 7.0 0.00 0.00 0.00 1063.6
20260903170849 0 188 6.0 10.0 0.00 0.00 0.00 1063.8
20260903170344 0 141 1.0 8.0 0.00 0.00 0.00 1063.4
20260903165842 0 154 4.0 8.0 0.00 0.00 0.00 1063.7
20260903165337 0 138 2.0 13.0 0.00 0.00 0.00 1063.7
20260903164832 0 150 1.0 9.0 0.00 0.00 0.00 1063.9
20260903164327 0 189 5.0 7.0 0.00 0.00 0.00 1063.6
20260903163826 0 159 1.0 3.0 0.00 0.00 0.00 1063.7
20260903163323 0 143 3.0 7.0 0.00 0.00 0.00 1063.7
20260903162819 0 222 2.0 3.0 0.00 0.00 0.00 1063.6
20260903162315 0 160 6.0 10.0 0.00 0.00 0.00 1063.8
20260903161811 0 165 2.0 3.0 0.00 0.00 0.00 1063.8
20260903161306 0 194 1.0 3.0 0.00 0.00 0.00 1063.8
20260903160802 0 271 3.0 6.0 0.00 0.00 0.00 1063.8
20260903160301 0 160 3.0 6.0 0.00 0.00 0.00 1064.0
20260903155759 0 186 3.0 6.0 0.00 0.00 0.00 1063.8
20260903155254 0 92 4.0 11.0 0.00 0.00 0.00 1063.8
20260903154750 0 180 2.0 3.0 0.00 0.00 0.00 1064.1
20260903154246 0 180 2.0 7.0 0.00 0.00 0.00 1063.9
20260903153741 0 208 3.0 3.0 0.00 0.00 0.00 1063.9
20260903153237 0 200 2.0 5.0 0.00 0.00 0.00 1064.1
20260903152733 0 176 4.0 7.0 0.00 0.00 0.00 1063.9
20260903152229 0 149 1.0 3.0 0.00 0.00 0.00 1064.0
20260903151728 0 142 1.0 5.0 0.00 0.00 0.00 1063.8
20260903151224 0 248 2.0 3.0 0.00 0.00 0.00 1064.0
20260903150719 0 191 3.0 5.0 0.00 0.00 0.00 1063.6
20260903150213 0 130 2.0 6.0 0.00 0.00 0.00 1064.0
20260903145708 0 145 2.0 5.0 0.00 0.00 0.00 1064.1
20260903145203 0 201 2.0 6.0 0.00 0.00 0.00 1063.9
20260903144702 0 162 1.0 3.0 0.00 0.00 0.00 1064.1
20260903144158 0 172 3.0 3.0 0.00 0.00 0.00 1063.9
20260903143654 0 181 1.0 3.0 0.00 0.00 0.00 1064.1
20260903143150 0 158 2.0 2.0 0.00 0.00 0.00 1064.2
20260903142645 0 157 1.0 8.0 0.00 0.00 0.00 1064.1
20260903142141 0 112 1.0 2.0 0.00 0.00 0.00 1064.3
20260903141636 0 180 1.0 6.0 0.00 0.00 0.00 1064.3
20260903141131 0 151 1.0 6.0 0.00 0.00 0.00 1064.2
20260903140627 0 167 1.0 2.0 0.00 0.00 0.00 1064.1
20260903140123 0 146 2.0 5.0 0.00 0.00 0.00 1064.2
20260903135618 0 168 0.0 6.0 0.00 0.00 0.00 1064.2
20260903135112 0 145 1.0 2.0 0.00 0.00 0.00 1064.2
20260903134611 0 157 0.0 1.0 0.00 0.00 0.00 1064.0
20260903134102 0 143 1.0 2.0 0.00 0.00 0.00 1064.2
20260903133559 0 139 0.0 2.0 0.00 0.00 0.00 1064.3
20260903133055 0 155 1.0 2.0 0.00 0.00 0.00 1064.3
20260903132550 0 183 2.0 3.0 0.00 0.00 0.00 1064.2
20260903132044 0 160 1.0 3.0 0.00 0.00 0.00 1064.3
20260903131544 0 142 0.0 2.0 0.00 0.00 0.00 1064.1
20260903131038 0 141 1.0 2.0 0.00 0.00 0.00 1064.2
20260903130532 0 143 0.0 1.0 0.00 0.00 0.00 1064.5
20260903130027 0 194 1.0 2.0 0.00 0.00 0.00 1064.3
20260903125525 0 144 1.0 2.0 0.00 0.00 0.00 1064.0
20260903125021 0 150 1.0 2.0 0.00 0.00 0.00 1064.3
20260903124515 0 169 2.0 3.0 0.00 0.00 0.00 1064.1
20260903124015 0 164 1.0 2.0 0.00 0.00 0.00 1064.0
20260903123509 0 162 1.0 2.0 0.00 0.00 0.00 1064.1
20260903123008 0 188 3.0 3.0 0.00 0.00 0.00 1064.2
20260903122507 0 188 2.0 2.0 0.00 0.00 0.00 1064.2
20260903122002 0 167 1.0 2.0 0.00 0.00 0.00 1064.2
20260903121456 0 176 1.0 2.0 0.00 0.00 0.00 1063.9
20260903120953 0 167 1.0 3.0 0.00 0.00 0.00 1064.0
20260903120451 0 179 1.0 2.0 0.00 0.00 0.00 1064.1
20260903115950 0 167 1.0 3.0 0.00 0.00 0.00 1064.0
20260903115450 0 159 0.0 1.0 0.00 0.00 0.00 1063.9
20260903114944 0 177 1.0 1.0 0.00 0.00 0.00 1063.8
20260903114440 0 152 2.0 2.0 0.00 0.00 0.00 1063.8
20260903113935 0 147 2.0 2.0 0.00 0.00 0.00 1063.8
20260903113432 0 146 2.0 2.0 0.00 0.00 0.00 1064.0
20260903112931 0 158 2.0 6.0 0.00 0.00 0.00 1064.0
20260903112427 0 163 1.0 2.0 0.00 0.00 0.00 1063.9
20260903111927 0 144 1.0 1.0 0.00 0.00 0.00 1063.9
20260903111421 0 169 2.0 2.0 0.00 0.00 0.00 1063.9
20260903110918 0 150 0.0 1.0 0.00 0.00 0.00 1063.9
20260903110413 0 153 1.0 1.0 0.00 0.00 0.00 1063.7
20260903105908 0 150 1.0 1.0 0.00 0.00 0.00 1063.9
20260903105403 0 149 0.0 2.0 0.00 0.00 0.00 1063.7
20260903104902 0 168 1.0 1.0 0.00 0.00 0.00 1063.7
20260903104357 0 151 3.0 3.0 0.00 0.00 0.00 1063.6
20260903103854 0 168 1.0 1.0 0.00 0.00 0.00 1063.7
20260903103350 0 149 0.0 1.0 0.00 0.00 0.00 1063.6
20260903102844 0 151 1.0 1.0 0.00 0.00 0.00 1063.6
20260903102338 0 152 0.0 1.0 0.00 0.00 0.00 1063.6
20260903101833 0 167 1.0 1.0 0.00 0.00 0.00 1063.5
20260903101328 0 160 1.0 3.0 0.00 0.00 0.00 1063.6
20260903100823 0 166 2.0 2.0 0.00 0.00 0.00 1063.7
20260903100317 0 163 1.0 3.0 0.00 0.00 0.00 1063.7
20260903095815 0 169 1.0 5.0 0.00 0.00 0.00 1063.5
20260903095308 0 166 2.0 3.0 0.00 0.00 0.00 1063.7
20260903094805 0 175 1.0 3.0 0.00 0.00 0.00 1063.5
20260903094259 0 154 1.0 5.0 0.00 0.00 0.00 1063.5
20260903093754 0 150 1.0 2.0 0.00 0.00 0.00 1063.4
20260903093249 0 170 3.0 5.0 0.00 0.00 0.00 1063.5
20260903092744 0 167 1.0 3.0 0.00 0.00 0.00 1063.4
20260903092239 0 171 2.0 3.0 0.00 0.00 0.00 1063.5
20260903091737 0 149 1.0 1.0 0.00 0.00 0.00 1063.4
20260903091226 0 160 2.0 3.0 0.00 0.00 0.00 1063.4
20260903090721 0 170 1.0 3.0 0.00 0.00 0.00 1063.5
20260903090220 0 164 2.0 5.0 0.00 0.00 0.00 1063.0
20260903085714 0 179 2.0 3.0 0.00 0.00 0.00 1063.5
20260903085209 0 172 2.0 5.0 0.00 0.00 0.00 1063.5
20260903084707 0 160 1.0 2.0 0.00 0.00 0.00 1063.5
20260903084202 0 165 1.0 2.0 0.00 0.00 0.00 1063.0
20260903083657 0 173 1.0 3.0 0.00 0.00 0.00 1063.4
20260903083151 0 151 4.0 5.0 0.00 0.00 0.00 1063.4
20260903082646 0 135 1.0 3.0 0.00 0.00 0.00 1063.1
20260903082142 0 188 1.0 3.0 0.00 0.00 0.00 1063.4
20260903081636 0 189 1.0 3.0 0.00 0.00 0.00 1063.1
20260903081132 0 183 3.0 3.0 0.00 0.00 0.00 1063.3
20260903080628 0 178 2.0 6.0 0.00 0.00 0.00 1063.0
20260903080125 0 170 1.0 2.0 0.00 0.00 0.00 1063.3
20260903075618 0 143 3.0 3.0 0.00 0.00 0.00 1063.1
20260903075114 0 189 3.0 3.0 0.00 0.00 0.00 1063.1
20260903074613 0 184 3.0 3.0 0.00 0.00 0.00 1063.5
20260903074108 0 166 1.0 3.0 0.00 0.00 0.00 1063.1
20260903073604 0 159 1.0 2.0 0.00 0.00 0.00 1063.3
20260903073059 0 182 3.0 3.0 0.00 0.00 0.00 1063.3
20260903072555 0 170 3.0 3.0 0.00 0.00 0.00 1063.3
20260903072051 0 165 2.0 2.0 0.00 0.00 0.00 1063.3
20260903071548 0 121 4.0 6.0 0.00 0.00 0.00 1063.1
20260903071047 0 178 2.0 5.0 0.00 0.00 0.00 1063.1
20260903070542 0 170 3.0 3.0 0.00 0.00 0.00 1063.3
20260903070038 0 168 3.0 3.0 0.00 0.00 0.00 1063.5
20260903065537 0 157 2.0 5.0 0.00 0.00 0.00 1063.5
20260903065036 0 157 2.0 6.0 0.00 0.00 0.00 1063.5
20260903064531 0 162 2.0 3.0 0.00 0.00 0.00 1063.1
20260903064027 0 171 2.0 3.0 0.00 0.00 0.00 1063.4
20260903063522 0 184 3.0 6.0 0.00 0.00 0.00 1063.4
20260903063017 0 168 3.0 3.0 0.00 0.00 0.00 1063.4
20260903062512 0 165 3.0 3.0 0.00 0.00 0.00 1063.3
20260903062008 0 167 2.0 2.0 0.00 0.00 0.00 1063.6
20260903061503 0 168 1.0 5.0 0.00 0.00 0.00 1063.4
20260903060957 0 166 4.0 6.0 0.00 0.00 0.00 1063.3
20260903060452 0 158 1.0 3.0 0.00 0.00 0.00 1063.6
20260903055950 0 158 2.0 6.0 0.00 0.00 0.00 1063.4
20260903055448 0 167 2.0 3.0 0.00 0.00 0.00 1063.5
20260903054943 0 171 3.0 5.0 0.00 0.00 0.00 1063.3
20260903054437 0 169 2.0 5.0 0.00 0.00 0.00 1063.1
20260903053934 0 152 3.0 5.0 0.00 0.00 0.00 1063.0
20260903053433 0 168 1.0 2.0 0.00 0.00 0.00 1063.4
20260903052931 0 162 1.0 2.0 0.00 0.00 0.00 1063.3
20260903052426 0 153 2.0 3.0 0.00 0.00 0.00 1063.3
20260903051921 0 162 2.0 3.0 0.00 0.00 0.00 1063.3
20260903051416 0 188 1.0 2.0 0.00 0.00 0.00 1063.1
20260903050912 0 150 1.0 2.0 0.00 0.00 0.00 1063.1
20260903050410 0 169 3.0 5.0 0.00 0.00 0.00 1063.1
20260903045905 0 160 2.0 3.0 0.00 0.00 0.00 1063.1
20260903045400 0 169 1.0 3.0 0.00 0.00 0.00 1063.3
20260903044852 0 147 1.0 6.0 0.00 0.00 0.00 1063.0
20260903044352 0 165 2.0 5.0 0.00 0.00 0.00 1063.0
20260903043849 0 165 2.0 3.0 0.00 0.00 0.00 1063.0
20260903043343 0 162 2.0 3.0 0.00 0.00 0.00 1063.0
20260903042842 0 192 3.0 3.0 0.00 0.00 0.00 1063.0
20260903042337 0 169 1.0 3.0 0.00 0.00 0.00 1063.0
20260903041833 0 144 1.0 2.0 0.00 0.00 0.00 1063.0
20260903041330 0 156 2.0 3.0 0.00 0.00 0.00 1063.1
20260903040825 0 162 1.0 3.0 0.00 0.00 0.00 1062.9
20260903040324 0 178 2.0 3.0 0.00 0.00 0.00 1062.9
20260903035820 0 159 2.0 6.0 0.00 0.00 0.00 1062.9
20260903035315 0 169 3.0 3.0 0.00 0.00 0.00 1063.0
20260903034810 0 172 3.0 5.0 0.00 0.00 0.00 1063.1
20260903034305 0 151 1.0 3.0 0.00 0.00 0.00 1062.9
20260903033801 0 175 3.0 5.0 0.00 0.00 0.00 1062.9
20260903033255 0 158 2.0 3.0 0.00 0.00 0.00 1062.8
20260903032750 0 189 2.0 5.0 0.00 0.00 0.00 1062.7
20260903032246 0 160 2.0 3.0 0.00 0.00 0.00 1062.9
20260903031741 0 175 2.0 5.0 0.00 0.00 0.00 1063.0
20260903031235 0 178 2.0 3.0 0.00 0.00 0.00 1062.8
20260903030731 0 161 2.0 2.0 0.00 0.00 0.00 1063.0
20260903030227 0 184 3.0 5.0 0.00 0.00 0.00 1063.0
20260903025722 0 163 2.0 3.0 0.00 0.00 0.00 1063.1
20260903025218 0 166 3.0 3.0 0.00 0.00 0.00 1063.0
20260903024717 0 172 2.0 3.0 0.00 0.00 0.00 1062.9
20260903024216 0 148 2.0 2.0 0.00 0.00 0.00 1062.8
20260903023713 0 155 1.0 3.0 0.00 0.00 0.00 1062.9
20260903023208 0 184 3.0 3.0 0.00 0.00 0.00 1062.7
20260903022707 0 159 1.0 3.0 0.00 0.00 0.00 1062.7
20260903022206 0 179 3.0 3.0 0.00 0.00 0.00 1062.7
20260903021701 0 154 2.0 3.0 0.00 0.00 0.00 1062.4
20260903021156 0 156 1.0 2.0 0.00 0.00 0.00 1062.5
20260903020651 0 150 1.0 2.0 0.00 0.00 0.00 1062.5
20260903020151 0 148 1.0 2.0 0.00 0.00 0.00 1062.4
20260903015646 0 157 1.0 1.0 0.00 0.00 0.00 1062.4
20260903015141 0 145 0.0 1.0 0.00 0.00 0.00 1062.1
20260903014636 0 150 0.0 1.0 0.00 0.00 0.00 1062.0
20260903014136 0 141 0.0 0.0 0.00 0.00 0.00 1062.3
20260903013630 0 142 0.0 0.0 0.00 0.00 0.00 1062.0
20260903013125 0 145 0.0 0.0 0.00 0.00 0.00 1062.1
20260903012624 0 145 0.0 1.0 0.00 0.00 0.00 1062.0
20260903012123 0 145 0.0 1.0 0.00 0.00 0.00 1061.8
20260903011622 0 152 0.0 1.0 0.00 0.00 0.00 1062.0
20260903011117 0 145 0.0 1.0 0.00 0.00 0.00 1061.8
20260903010613 0 144 0.0 1.0 0.00 0.00 0.00 1061.7
20260903010111 0 145 0.0 1.0 0.00 0.00 0.00 1061.5
20260903005606 0 158 1.0 2.0 0.00 0.00 0.00 1061.8
20260903005102 0 149 0.0 1.0 0.00 0.00 0.00 1061.9
20260903004602 0 163 1.0 2.0 0.00 0.00 0.00 1061.7
20260903004057 0 145 0.0 1.0 0.00 0.00 0.00 1061.6
20260903003552 0 160 2.0 2.0 0.00 0.00 0.00 1061.8
20260903003047 0 155 1.0 2.0 0.00 0.00 0.00 1061.8
20260903002542 0 169 1.0 2.0 0.00 0.00 0.00 1061.9
20260903002037 0 161 1.0 3.0 0.00 0.00 0.00 1061.8
20260903001532 0 157 1.0 7.0 0.00 0.00 0.00 1061.7
20260903001031 0 169 1.0 2.0 0.00 0.00 0.00 1061.8
20260903000527 0 141 0.0 2.0 0.00 0.00 0.00 1061.7
20260903000026 0 184 3.0 5.0 0.00 0.00 0.00 1061.7
20260902235520 0 194 1.0 3.0 0.00 0.00 0.00 1061.7
20260902235014 0 135 1.0 1.0 0.00 0.00 0.00 1061.7
20260902234509 0 142 1.0 2.0 0.00 0.00 0.00 1061.9
20260902234008 0 174 1.0 5.0 0.00 0.00 0.00 1061.8
20260902233502 0 184 1.0 2.0 0.00 0.00 0.00 1061.7
20260902232956 0 132 2.0 3.0 0.00 0.00 0.00 1061.8
20260902232450 0 151 1.0 1.0 0.00 0.00 0.00 1061.8
20260902231944 0 132 2.0 6.0 0.00 0.00 0.00 1061.6
20260902231439 0 131 1.0 5.0 0.00 0.00 0.00 1061.8
20260902230934 0 146 4.0 7.0 0.00 0.00 0.00 1061.8
20260902230433 0 157 1.0 3.0 0.00 0.00 0.00 1061.8
20260902225928 0 135 3.0 5.0 0.00 0.00 0.00 1061.8
20260902225423 0 178 6.0 7.0 0.00 0.00 0.00 1062.0
20260902224921 0 148 2.0 5.0 0.00 0.00 0.00 1061.9
20260902224416 0 205 4.0 7.0 0.00 0.00 0.00 1062.1
20260902223912 0 140 4.0 7.0 0.00 0.00 0.00 1062.2
20260902223407 0 177 4.0 8.0 0.00 0.00 0.00 1062.1
20260902222901 0 160 0.0 5.0 0.00 0.00 0.00 1062.2
20260902222400 0 172 1.0 5.0 0.00 0.00 0.00 1062.1
20260902221859 0 159 6.0 8.0 0.00 0.00 0.00 1062.2
20260902221359 0 142 3.0 8.0 0.00 0.00 0.00 1062.2
20260902220855 0 188 7.0 9.0 0.00 0.00 0.00 1061.9
20260902220354 0 149 2.0 5.0 0.00 0.00 0.00 1061.9
20260902215849 0 179 5.0 6.0 0.00 0.00 0.00 1062.1
20260902215344 0 184 4.0 7.0 0.00 0.00 0.00 1062.0
20260902214840 0 174 4.0 9.0 0.00 0.00 0.00 1061.9
20260902214339 0 158 6.0 9.0 0.00 0.00 0.00 1062.1
20260902213834 0 187 2.0 5.0 0.00 0.00 0.00 1062.2
20260902213330 0 141 3.0 7.0 0.00 0.00 0.00 1062.2
20260902212828 0 194 2.0 6.0 0.00 0.00 0.00 1062.2
20260902212325 0 175 3.0 8.0 0.00 0.00 0.00 1062.4
20260902211822 0 150 4.0 9.0 0.00 0.00 0.00 1062.2
20260902211317 0 176 3.0 9.0 0.00 0.00 0.00 1062.4
20260902210812 0 177 1.0 5.0 0.00 0.00 0.00 1062.2
20260902210306 0 164 2.0 6.0 0.00 0.00 0.00 1062.5
20260902205804 0 287 4.0 5.0 0.00 0.00 0.00 1062.5
20260902205259 0 196 1.0 3.0 0.00 0.00 0.00 1062.7
20260902204754 0 164 3.0 5.0 0.00 0.00 0.00 1062.6
20260902204250 0 161 3.0 6.0 0.00 0.00 0.00 1062.4
20260902203745 0 147 1.0 5.0 0.00 0.00 0.00 1062.7
20260902203244 0 196 3.0 10.0 0.00 0.00 0.00 1062.7
20260902202740 0 157 3.0 7.0 0.00 0.00 0.00 1062.8
20260902202236 0 170 4.0 6.0 0.00 0.00 0.00 1062.7
20260902201733 0 135 1.0 3.0 0.00 0.00 0.00 1063.0
20260902201232 0 140 2.0 7.0 0.00 0.00 0.00 1063.1
20260902200727 0 159 4.0 7.0 0.00 0.00 0.00 1063.0
20260902200223 0 227 2.0 5.0 0.00 0.00 0.00 1063.1
20260902195718 0 147 2.0 8.0 0.00 0.00 0.00 1063.1
20260902195217 0 126 0.0 2.0 0.00 0.00 0.00 1063.4
20260902194716 0 99 0.0 1.0 0.00 0.00 0.00 1063.4
20260902194212 0 123 2.0 3.0 0.00 0.00 0.00 1063.5
20260902193707 0 136 2.0 2.0 0.00 0.00 0.00 1063.6
20260902193203 0 184 3.0 5.0 0.00 0.00 0.00 1063.7
20260902192701 0 180 1.0 5.0 0.00 0.00 0.00 1063.6
20260902192200 0 168 2.0 3.0 0.00 0.00 0.00 1064.0
20260902191655 0 184 3.0 6.0 0.00 0.00 0.00 1063.8
20260902191149 0 136 3.0 6.0 0.00 0.00 0.00 1063.8
20260902190645 0 159 5.0 9.0 0.00 0.00 0.00 1063.8
20260902190140 0 144 2.0 7.0 0.00 0.00 0.00 1064.0
20260902185636 0 151 1.0 6.0 0.00 0.00 0.00 1064.1
20260902185131 0 163 3.0 7.0 0.00 0.00 0.00 1063.8
20260902184626 0 187 1.0 5.0 0.00 0.00 0.00 1064.0
20260902184122 0 184 1.0 3.0 0.00 0.00 0.00 1064.1
20260902183618 0 157 2.0 3.0 0.00 0.00 0.00 1064.1
20260902183114 0 182 3.0 7.0 0.00 0.00 0.00 1064.3
20260902182610 0 210 3.0 3.0 0.00 0.00 0.00 1064.1
20260902182106 0 173 4.0 6.0 0.00 0.00 0.00 1064.5
20260902181602 0 252 1.0 3.0 0.00 0.00 0.00 1064.2
20260902181101 0 219 2.0 3.0 0.00 0.00 0.00 1064.4
20260902180601 0 239 2.0 3.0 0.00 0.00 0.00 1064.6
20260902180057 0 230 3.0 5.0 0.00 0.00 0.00 1064.5
20260902175556 0 160 2.0 3.0 0.00 0.00 0.00 1064.8
20260902175052 0 196 1.0 2.0 0.00 0.00 0.00 1064.7
20260902174549 0 145 0.0 1.0 0.00 0.00 0.00 1064.7
20260902174044 0 171 1.0 2.0 0.00 0.00 0.00 1064.6
20260902173543 0 172 2.0 5.0 0.00 0.00 0.00 1064.9
20260902173038 0 183 4.0 6.0 0.00 0.00 0.00 1065.0
20260902172533 0 167 1.0 3.0 0.00 0.00 0.00 1065.3
20260902172028 0 228 3.0 8.0 0.00 0.00 0.00 1065.2